Overview Statistics Trail Chart Weather Telemetry Raw packets
 

This is the latest recevied weather packets stored in our database for station/object KB7K. If no packets are shown the sender has not sent any weather packets the latest 10 day(s).

<< 25 26 27 28 29 30 31 >>
Time Temp. Humidity Pressure Rain* Wind** Luminosity Snow
1787825379 22.22° C 30% 985 hPa 0 mm - - -
1787824376 22.22° C 30% 984.8 hPa 0 mm - - -
1787823373 22.22° C 30% 984.5 hPa 0 mm - - -
1787822370 22.22° C 30% 984.9 hPa 0 mm - - -
1787821367 22.78° C 30% 984.9 hPa 0 mm - - -
1787820364 22.78° C 30% 984.9 hPa 0 mm - - -
1787819361 22.78° C 30% 984.9 hPa 0 mm - - -
1787818358 23.33° C 29% 984.7 hPa 0 mm - - -
1787817355 23.33° C 29% 985.1 hPa 0 mm - - -
1787816352 23.33° C 30% 985.1 hPa 0 mm - - -
1787815349 22.78° C 30% 985.6 hPa 0 mm - - -
1787814346 22.78° C 31% 985.7 hPa 0 mm - - -
1787813343 22.78° C 31% 985.9 hPa 0 mm - - -
1787812341 23.33° C 31% 986.2 hPa 0 mm - - -
1787811337 23.33° C 31% 985.9 hPa 0 mm - - -
1787810334 23.33° C 31% 985.8 hPa 0 mm - - -
1787809331 23.33° C 31% 985.3 hPa 0 mm - - -
1787808328 23.89° C 30% 985.2 hPa 0 mm - - -
1787807325 23.89° C 30% 985 hPa 0 mm - - -
1787806321 23.89° C 29% 984.8 hPa 0 mm - - -
1787805319 24.44° C 29% 984.6 hPa 0 mm - - -
1787804316 24.44° C 28% 984.7 hPa 0 mm - - -
1787803312 24.44° C 28% 984.4 hPa 0 mm - - -
1787801676 25° C 28% 984.6 hPa 0 mm - - -
1787799670 25.56° C 27% 984.3 hPa 0 mm - - -

* Rain since midnight (hover to see other rain measurements)
** Current wind speed in m/s (hover to see current wind gust speed)